Regional Weather Roundup
Issued by NWS Columbia, SC

Home | Current Version | Previous Version | Text Only | Print | Product List | Glossary On
Versions: 1 2 3 4 5 6 7 8 9 10 11 12 13 14 15 16 17 18 19 20 21 22 23 24 25 26 27 28 29 30 31 32 33 34 35 36 37 38 39 40 41 42 43 44 45 46 47 48 49 50
000
ASUS42 KCAE 241110
RWRCAE
REGIONAL WEATHER ROUNDUP
NATIONAL WEATHER SERVICE COLUMBIA SC
600 AM EST FRI NOV 24 2017

NOTE: "FAIR" INDICATES FEW OR NO CLOUDS BELOW 12,000 FEET WITH NO
SIGNIFICANT WEATHER AND/OR OBSTRUCTIONS TO VISIBILITY.

NOT ALL STATIONS ARE QUALITY CONTROLLED BY THE NATIONAL
WEATHER SERVICE. USE DATA WITH CAUTION...ESPECIALLY
DEWPOINT OBSERVATIONS.

SCZ001>056-GAZ040-063>065-077-241200-
...UPSTATE SOUTH CAROLINA...

CITY           SKY/WX    TMP DP  RH WIND       PRES   REMARKS
ANDERSON       CLEAR     32  30  92 CALM      30.05R
LIBERTY        SUNNY     28  28 100 CALM      30.04R
SPARTANBURG    CLEAR     32  30  93 CALM      30.05R
CLEMSON        CLEAR     35  35 100 CALM      30.05S
GREENVILLE     CLEAR     37  29  72 N6        30.05R WCI  32
GREENWOOD      CLEAR     28  28 100 CALM      30.06R
GREER          CLEAR     31  29  92 CALM      30.05R
ROCK HILL      FOG       30  29  96 N3        30.05S VSB 1/4
CHESTER        SUNNY     32  32 100 N5        30.05S WCI  27
LAURENS        SUNNY     30  30 100 N3        30.04S


...CENTRAL SOUTH CAROLINA...

CITY           SKY/WX    TMP DP  RH WIND       PRES   REMARKS
COLUMBIA APT   CLEAR     31  30  96 CALM      30.04R
COLUMBIA OWENS CLEAR     33  32  96 CALM      30.05S
MCENTIRE ANGB  CLEAR     34  31  88 NW3       30.03R
ORANGEBURG     CLEAR     37  34  89 CALM      30.02S
SUMTER SHAW    CLEAR     34  31  87 N3        30.01R
NEWBERRY       SUNNY     32  30  93 N5        30.08R WCI  27
AIKEN          FAIR      34  32  93 N3        30.05S
BARNWELL         N/A     37  34  87 CALM      30.02S
MANNING        FAIR      36  34  93 MISG      30.02S
CAMDEN         FAIR      32  30  93 CALM      30.05R
LANCASTER      SUNNY     30  30 100 CALM      30.05S
WINNSBORO      SUNNY     32  30  93 N5        30.03S WCI  27


...EASTERN AND COASTAL SOUTH CAROLINA...

CITY           SKY/WX    TMP DP  RH WIND       PRES   REMARKS
N MYRTLE BCH   PTCLDY    42  38  85 N10       30.00R
CONWAY         FAIR      37  36  93 N5        30.02S WCI  34
MARION         FAIR      34  32  93 CALM      30.04R
HARTSVILLE     FAIR      34  32  93 N5        30.04R WCI  30
FLORENCE       CLEAR     35  32  88 NE5       30.04R WCI  31
DARLINGTON     CLEAR     30  28  92 N3        30.05S
CHARLESTON APT CLEAR     43  40  89 N10       29.98S
MOUNT PLEASANT FAIR      45  39  81 N7        29.97F
WALTERBORO     SUNNY     39  37  93 N7        30.01S WCI  34
BEAUFORT       CLEAR     45  41  86 N9        29.98S


...EASTERN GEORGIA...

CITY           SKY/WX    TMP DP  RH WIND       PRES   REMARKS
AUGUSTA BUSH F CLEAR     33  32  96 N5        30.03S WCI  29
AUGUSTA DANIEL CLEAR     38  34  85 N7        30.03S WCI  33
THOMSON        PTCLDY    31  30  96 CALM      30.09S FOG
WASHINGTON     FAIR      32  32 100 N3        30.04S
CLAXTON        FAIR      44  38  82 CALM      29.99R
SYLVANIA       SUNNY     41  37  86 NE6       30.01S
STATESBORO     CLEAR     40  34  80 N5        30.00R
SAVANNAH       PTCLDY    43  40  89 N9        29.98R


...SOUTHERN NORTH CAROLINA...

CITY           SKY/WX    TMP DP  RH WIND       PRES   REMARKS
CHARLOTTE      CLEAR     28  28 100 N5        30.05S WCI  23
MONROE         CLEAR     30  29  96 CALM      30.04R
WADESBORO      CLOUDY    25  22  88 CALM      30.06S
RUTHERFORDTON  CLEAR     29  29 100 CALM      30.06S
ASHEVILLE      PTCLDY    28  26  92 CALM      30.04S

$$



USA.gov is the U.S. government's official web portal to all federal, state and local government web resources and services.